Theta_e
348 347 347 346 344 345 345 345 343 339 336 334 329 326 328 329 330 330 329 327 326 325 324 324 322 320 319 321 322 325 330 336 339 339 339 339 338 338 337 337 337 336 335 334 334 335 336 336 337 338 338 339 338 338 338 339 339 339 340 340 340 340 340 340 340 340 340 340 341 341 341 340 339 339 338 338 337 338 338 337 337 338 338 338 338
348 347 347 345 344 345 345 345 342 338 336 332 327 328 329 329 330 330 330 328 326 324 323 323 322 321 320 322 324 327 333 338 339 339 339 339 338 338 337 337 337 337 336 335 335 335 336 336 337 337 338 339 339 338 338 338 338 338 339 340 339 340 341 340 339 340 340 340 340 339 339 339 339 338 337 337 337 337 337 337 337 338 338 338 338
346 348 347 345 344 344 344 344 340 337 335 330 327 329 330 330 331 331 331 329 327 323 322 322 322 322 322 324 326 328 333 339 339 339 340 338 338 338 337 337 337 338 337 337 335 335 336 336 336 337 337 338 338 338 338 337 337 338 339 340 340 340 340 339 338 339 339 339 338 336 335 335 335 335 335 335 336 336 336 337 337 338 338 338 338
345 348 347 346 343 342 343 342 339 337 334 329 327 330 331 330 331 332 332 330 327 323 321 321 322 323 324 326 328 331 334 336 337 339 339 338 338 337 337 337 338 338 337 336 336 335 335 335 336 336 337 338 338 337 338 337 336 338 339 339 339 339 339 338 337 337 336 335 335 335 335 334 334 333 333 333 335 336 335 335 336 337 337 337 337
345 348 347 348 344 342 342 341 338 337 333 328 328 331 333 332 333 333 332 331 327 323 321 322 324 326 330 331 333 336 337 335 335 338 339 338 338 337 338 337 338 338 337 337 337 336 334 334 335 336 336 337 336 336 336 336 336 337 339 339 339 339 338 337 336 336 334 334 334 334 335 335 335 333 332 332 334 334 334 334 335 335 336 336 335
345 348 348 348 346 344 341 340 338 337 332 328 330 334 337 336 334 333 333 332 329 325 322 323 327 331 335 337 337 338 336 333 334 338 338 338 338 337 338 337 338 337 337 337 337 337 334 332 331 334 334 334 334 333 333 334 336 337 338 338 339 339 338 338 336 336 335 333 334 334 335 334 335 334 332 333 334 333 334 333 334 334 334 334 334
345 348 348 348 346 344 341 339 338 337 332 328 330 336 339 338 335 333 333 333 331 329 326 327 329 333 338 339 339 338 335 332 333 338 338 337 337 337 338 338 337 337 338 338 337 336 335 331 327 330 332 332 332 332 332 333 335 335 336 336 337 335 335 336 333 335 336 333 334 335 334 333 333 333 333 334 334 333 333 333 333 334 334 333 332
346 348 347 347 346 344 341 339 339 337 333 329 331 337 340 340 337 334 334 333 333 334 333 332 331 334 337 338 339 338 336 333 333 337 339 337 336 337 338 338 338 338 338 338 336 335 336 330 324 328 330 332 332 332 333 333 334 334 334 332 332 332 333 334 333 334 335 334 334 334 333 333 334 333 332 333 333 333 333 332 332 333 333 332 332
347 347 346 346 346 344 341 339 339 337 334 330 331 336 340 342 339 334 333 333 333 335 336 337 335 336 337 337 339 337 336 333 333 338 338 336 336 338 338 338 338 337 336 336 336 335 335 326 322 328 330 331 332 332 332 332 332 331 330 330 331 333 334 335 334 334 334 333 333 333 334 334 334 333 332 331 331 331 330 330 331 332 332 332 332
348 347 347 346 346 344 341 339 339 337 335 331 331 335 339 341 338 334 333 333 333 333 337 339 338 338 338 338 338 336 335 332 334 337 336 335 336 338 338 338 338 336 336 336 336 335 332 322 319 326 328 330 330 331 331 330 330 329 329 331 332 334 334 335 335 334 333 332 332 333 333 333 332 332 332 331 331 330 329 330 331 332 332 332 333
347 347 347 346 346 343 341 340 339 338 336 333 331 334 337 337 335 334 333 332 333 332 336 338 338 338 338 337 336 335 333 332 335 336 335 336 338 338 339 339 338 337 336 336 335 332 329 320 317 323 327 328 329 329 329 329 328 329 331 333 333 333 334 334 334 332 331 329 329 331 331 330 331 331 331 331 331 330 330 330 330 330 331 332 332
347 347 347 347 346 343 341 340 339 339 337 334 331 332 333 333 334 334 332 332 332 332 334 335 336 337 338 337 335 335 333 333 336 337 336 337 338 339 339 339 337 336 336 335 333 331 327 318 315 321 325 326 328 328 328 328 329 330 332 333 332 332 332 332 331 330 329 328 327 328 329 330 330 330 330 330 329 329 329 329 329 329 330 331 331
347 347 347 347 345 344 342 341 340 338 338 335 332 331 329 331 333 332 332 331 330 331 332 334 335 335 337 338 335 334 333 333 336 337 337 337 338 339 338 338 337 336 336 334 332 329 324 316 315 320 324 326 326 327 327 329 330 331 333 333 332 331 331 330 329 327 326 326 327 329 329 329 329 330 330 329 329 328 328 328 328 328 329 330 330
347 348 347 347 345 344 343 342 340 338 338 336 335 331 329 331 333 333 332 330 329 329 330 332 333 333 338 339 336 335 333 334 336 337 338 338 338 338 338 338 336 336 335 333 331 329 322 315 315 319 323 325 326 328 329 330 331 332 333 334 332 331 331 329 325 323 323 324 327 329 329 329 329 329 329 329 329 328 328 328 328 328 328 329 330
345 347 347 346 345 345 344 342 341 340 340 338 337 333 330 332 333 333 331 330 328 328 329 331 332 334 338 340 337 336 333 333 335 337 338 338 339 338 339 337 335 335 334 332 331 329 323 316 317 321 324 326 328 330 330 331 331 332 334 334 332 331 330 327 324 323 325 326 327 328 328 328 328 329 329 329 329 328 328 328 328 328 328 328 328
341 346 346 346 346 346 345 344 343 343 342 340 337 333 332 333 333 332 331 328 327 328 330 332 334 336 338 339 338 337 334 333 335 337 338 338 339 338 338 337 335 335 333 332 331 330 324 317 320 325 327 328 330 330 331 331 333 334 335 334 332 331 330 326 322 323 327 328 327 327 328 328 328 329 329 328 328 328 328 328 328 328 328 328 328
339 344 345 346 346 346 346 345 344 344 343 342 337 333 333 334 333 332 330 328 329 332 334 335 337 338 338 338 339 338 336 335 334 336 337 339 339 339 338 336 335 334 333 332 331 331 327 319 321 328 329 330 330 330 331 333 333 334 334 334 332 331 330 327 323 324 326 327 327 327 328 328 328 329 329 328 328 328 327 328 328 328 328 328 328
340 344 345 347 346 346 346 345 345 344 343 342 337 335 334 334 334 332 330 330 333 336 336 337 338 339 339 339 338 337 337 336 335 335 337 339 340 339 337 336 335 334 333 332 332 331 330 323 320 325 329 329 330 331 333 334 334 334 334 332 332 331 331 329 326 323 323 325 328 328 328 328 328 329 329 329 328 328 327 328 327 327 327 327 328
342 345 346 347 346 346 345 345 345 344 343 341 337 336 335 335 334 332 333 334 337 338 338 338 338 339 339 339 337 336 336 336 335 335 337 338 339 338 337 335 335 334 333 332 332 331 331 328 322 322 327 329 330 333 334 334 334 334 333 332 332 332 331 328 326 322 321 325 328 328 328 328 328 329 328 328 328 328 328 327 327 327 327 327 328
345 346 346 345 345 345 344 344 344 344 342 339 337 337 337 336 334 334 336 338 338 339 339 339 339 340 338 338 336 336 335 336 336 335 337 338 339 338 336 335 335 334 333 332 332 332 331 330 326 321 323 328 331 334 335 335 335 334 333 333 333 332 330 327 324 322 321 324 327 327 328 328 328 328 328 328 327 328 327 326 327 327 326 327 327
345 345 345 345 345 344 344 344 343 342 339 338 338 338 338 336 333 335 338 339 340 339 339 339 339 339 338 337 336 335 334 335 335 335 337 338 338 337 336 335 335 334 333 332 332 332 331 330 329 323 322 328 333 334 334 335 337 336 333 333 332 331 329 327 324 321 321 325 327 327 328 328 328 328 328 328 327 327 326 326 326 326 326 326 325
344 344 345 344 344 344 343 343 342 341 338 338 339 339 339 335 334 338 339 340 341 340 339 339 339 338 338 337 335 333 333 333 332 334 336 336 336 337 336 335 335 334 333 332 332 332 332 331 330 327 327 331 332 332 333 334 336 336 335 333 332 331 329 327 324 321 321 326 328 328 328 328 328 328 328 327 326 326 326 326 326 326 325 325 325
342 343 344 344 344 343 343 342 342 341 339 340 340 339 337 334 336 339 339 340 341 340 339 339 338 338 337 336 334 333 333 332 332 333 334 334 335 336 336 335 334 334 333 332 331 331 332 331 330 329 330 331 330 331 333 334 335 335 334 333 332 331 329 327 324 322 322 326 328 328 328 328 328 328 327 326 326 325 325 325 325 325 325 325 325
340 341 343 343 343 342 341 341 341 341 341 341 340 338 334 334 337 338 339 341 341 340 339 339 338 337 337 336 334 334 333 333 334 333 332 334 336 335 335 335 334 333 332 332 332 331 331 332 332 331 330 330 330 331 332 333 334 334 333 333 332 331 329 327 325 322 323 327 328 328 328 327 327 328 327 326 326 326 325 325 325 325 324 324 324
339 340 342 342 342 340 339 340 340 341 340 340 338 336 334 336 338 338 339 340 340 340 340 338 338 337 337 336 335 335 333 334 336 335 333 333 335 334 334 335 332 330 330 332 332 331 330 331 331 332 332 331 332 333 333 333 334 334 333 333 332 331 330 327 325 323 324 326 327 328 328 327 327 328 327 326 326 326 326 325 325 324 324 324 324
339 340 341 340 340 339 339 339 340 340 340 338 336 335 336 337 337 338 339 339 339 339 339 337 337 337 336 336 336 336 334 335 336 335 334 332 331 332 332 332 331 329 328 330 332 331 331 330 330 332 334 334 334 335 335 335 335 334 333 333 332 331 330 328 326 325 324 324 326 328 328 328 328 327 327 327 326 325 325 325 325 325 324 324 324
340 341 340 339 340 340 338 338 339 339 338 336 335 335 337 337 337 338 338 339 338 337 337 336 336 336 335 336 337 337 336 337 336 335 335 333 332 333 332 332 331 330 327 328 331 330 330 330 329 330 333 334 333 334 335 335 335 334 333 332 332 331 330 329 327 326 326 325 327 329 328 328 327 326 327 327 325 324 324 325 324 324 324 324 324
340 340 340 340 340 339 336 336 338 337 337 336 336 336 336 337 337 338 338 337 336 336 336 336 335 334 335 336 337 338 337 337 336 336 336 334 335 335 333 330 329 329 326 326 328 327 328 328 328 329 331 332 331 333 335 334 333 333 333 332 332 332 331 330 328 327 326 324 324 327 328 327 326 326 326 326 326 326 326 326 326 325 325 324 324
341 340 340 340 338 338 337 337 338 337 337 336 335 336 336 337 337 337 337 336 335 336 337 337 335 334 335 336 337 338 337 337 337 337 336 335 336 334 332 330 329 330 329 328 328 328 329 329 329 330 331 331 331 332 333 333 332 332 331 332 332 332 331 330 328 328 326 323 323 326 328 326 325 327 326 327 327 327 327 326 326 325 324 324 323
341 341 341 340 339 339 339 339 339 337 336 336 335 336 337 337 337 337 336 334 335 337 338 338 337 336 337 337 337 337 336 336 337 336 336 336 335 333 332 333 332 331 332 332 332 331 332 331 331 331 331 331 331 332 332 332 332 331 330 331 332 332 331 330 329 328 326 323 323 327 328 324 325 327 327 328 328 327 327 326 325 324 324 323 323
341 340 340 340 340 340 340 339 339 338 337 336 335 335 336 337 337 337 335 335 337 339 339 339 339 338 339 337 337 337 336 336 336 335 335 335 335 334 333 334 333 333 333 333 333 333 332 333 332 332 332 331 331 331 331 331 331 331 330 330 331 332 332 330 329 328 326 323 322 326 327 324 326 328 328 328 327 327 327 325 325 324 323 323 323
339 338 338 338 340 340 340 339 339 338 337 336 336 335 336 337 337 336 335 335 337 338 338 339 339 339 338 337 337 337 336 336 336 335 335 335 335 335 334 334 334 333 333 333 335 334 333 334 333 332 333 331 331 330 330 331 330 330 330 331 332 332 332 330 329 328 326 322 320 323 324 324 327 328 327 326 326 327 327 325 324 323 322 323 323
337 337 337 337 339 340 340 340 340 338 337 337 335 335 337 338 337 337 336 335 337 338 337 338 338 338 337 336 336 337 336 336 335 335 335 336 336 335 335 334 335 334 334 334 335 334 334 334 333 332 332 332 331 330 330 330 330 331 331 331 332 332 332 331 330 327 324 320 318 319 321 325 328 328 327 327 328 329 329 327 324 321 320 321 321
337 337 337 337 338 339 339 339 340 339 338 338 336 336 338 338 337 337 337 336 337 337 337 338 338 338 337 336 336 336 336 336 335 335 335 336 335 335 335 334 334 335 335 335 334 333 332 332 333 332 332 332 332 331 330 330 330 331 330 331 333 333 333 332 330 327 324 320 318 318 320 325 328 327 328 329 329 330 330 330 326 321 319 319 319
338 336 337 337 338 339 339 339 339 339 339 338 338 338 338 338 338 338 338 337 337 337 337 337 337 337 337 336 336 335 336 335 335 335 335 336 335 334 334 334 334 334 335 336 334 333 332 332 333 333 332 332 331 331 330 330 330 329 329 331 334 333 333 332 330 326 324 322 320 319 321 325 327 328 329 329 329 330 330 330 327 322 319 318 319
338 336 336 336 337 338 338 338 338 338 337 337 337 338 338 337 337 337 338 337 337 337 337 337 337 337 337 336 336 335 335 334 335 336 336 335 334 334 334 334 334 334 335 336 334 334 333 333 333 332 332 331 331 331 330 330 330 329 329 330 333 333 333 332 329 327 325 323 323 323 324 326 327 328 329 329 329 329 329 329 326 323 322 320 320
336 336 336 335 337 337 338 338 337 337 336 336 336 337 337 336 337 337 338 338 337 337 337 337 337 337 337 336 336 336 335 335 335 336 336 335 334 333 333 334 333 333 334 335 334 334 333 333 333 332 332 332 331 331 331 330 330 330 330 330 331 333 333 333 330 327 326 325 325 326 326 326 327 328 328 329 328 327 329 329 326 326 325 323 322
336 337 336 335 336 337 338 338 337 337 335 335 336 337 337 337 337 337 338 338 337 337 337 337 337 337 337 336 336 336 335 335 336 336 335 335 334 333 334 334 334 334 334 335 334 333 332 332 333 331 331 331 331 331 331 331 331 331 331 331 331 332 333 333 330 328 327 327 326 326 327 327 327 328 328 327 327 327 328 329 327 327 327 326 326
336 337 336 336 336 337 338 336 335 336 334 334 336 336 336 337 338 338 338 338 337 338 337 337 338 337 336 336 336 335 334 335 335 335 335 335 334 334 334 335 334 334 334 334 334 333 332 333 332 331 331 331 331 331 332 332 332 332 332 332 332 332 332 333 331 329 328 328 328 328 328 328 327 327 327 325 325 326 328 329 328 327 327 328 329
336 335 335 335 336 336 335 334 335 335 334 334 335 335 336 337 338 338 338 338 338 338 338 337 337 337 336 335 336 335 334 335 335 335 335 334 334 334 334 335 334 334 333 333 334 333 333 332 331 331 331 330 331 332 332 332 332 333 332 332 332 332 331 331 332 331 330 330 330 329 330 329 327 326 325 324 325 325 327 328 328 327 327 328 329
334 334 335 335 335 335 333 334 335 334 334 334 334 335 336 337 337 338 338 338 338 338 338 337 337 336 335 335 335 335 335 335 334 334 334 333 333 334 334 334 334 334 333 333 333 333 333 331 330 331 330 330 331 332 333 332 332 331 331 332 331 332 331 331 331 330 330 331 330 330 330 329 328 326 324 325 325 325 325 326 327 328 327 328 328
335 334 335 335 334 333 332 334 335 334 334 334 333 334 336 337 337 337 338 338 338 337 336 336 336 335 335 335 335 335 335 334 334 334 334 333 333 333 333 334 334 333 333 333 332 332 332 331 330 330 330 330 331 331 332 331 331 330 330 330 330 330 330 330 331 330 330 330 330 330 330 330 329 327 325 325 325 325 325 325 326 326 326 326 325
336 334 333 333 333 332 333 334 334 334 334 334 334 334 335 337 337 337 337 337 336 336 336 335 335 335 334 335 335 335 335 334 334 334 334 334 333 332 332 334 334 333 333 333 332 332 332 331 331 331 331 330 330 331 332 331 330 330 329 330 330 330 330 329 329 330 329 329 329 330 329 330 330 328 327 326 326 327 326 326 325 325 325 326 325
334 333 333 332 331 333 335 334 333 334 335 335 335 335 336 337 337 337 336 336 336 336 336 335 335 335 334 334 335 335 335 334 334 334 335 334 334 332 331 333 333 332 333 333 333 333 332 331 331 332 331 330 330 330 331 331 330 329 329 329 329 329 331 330 328 328 329 328 328 329 329 329 329 329 328 328 327 327 328 327 325 326 327 327 326
332 332 334 332 332 335 335 333 334 334 335 334 331 332 334 336 337 337 336 336 336 336 336 335 335 335 334 334 334 335 335 335 334 334 334 334 334 333 332 333 332 332 333 333 334 334 333 332 332 332 332 331 330 330 331 331 330 329 329 329 329 330 330 329 328 328 328 328 328 329 329 329 329 329 328 328 328 328 328 327 327 328 328 327 326
332 333 334 334 334 335 334 334 336 335 334 331 325 328 333 336 337 337 337 336 336 336 336 335 334 334 334 334 333 334 334 334 334 334 334 334 333 333 333 333 333 333 334 334 334 334 334 333 332 333 332 332 331 330 331 331 329 329 329 328 330 330 329 328 329 329 328 329 329 329 329 328 329 329 328 328 328 328 328 328 328 328 328 328 327
332 332 334 335 334 334 334 335 336 334 332 328 325 329 334 336 337 337 337 336 336 336 335 335 334 334 334 334 334 334 334 334 334 334 333 333 333 333 334 334 334 335 335 335 335 335 334 333 333 332 332 332 331 331 332 331 329 330 330 328 330 330 328 328 329 329 330 329 328 329 328 328 329 328 327 327 327 328 328 328 328 328 328 327 327
332 332 334 334 333 333 335 335 335 333 330 327 326 331 335 336 336 337 336 336 335 335 335 334 334 334 334 334 334 333 333 333 333 333 333 333 333 334 334 334 335 335 335 334 335 334 334 334 333 332 332 332 332 332 332 330 330 332 331 330 330 329 327 327 327 328 329 329 329 329 328 328 328 328 327 327 328 328 328 328 328 327 327 327 327
332 332 334 334 334 334 335 335 335 332 329 327 327 330 334 336 336 336 336 335 335 334 335 335 334 334 334 334 333 333 333 332 332 333 333 333 333 333 334 335 336 335 334 334 334 334 335 334 332 333 332 332 332 332 332 330 330 332 331 330 330 328 328 328 327 327 327 329 329 328 327 327 327 327 327 327 327 327 328 328 327 327 327 327 327
332 331 333 335 335 335 336 335 335 334 333 332 331 333 335 336 336 335 335 334 334 334 335 335 334 334 334 333 333 333 333 333 332 332 333 333 333 333 333 334 335 335 334 334 333 333 334 333 333 333 333 332 332 332 332 330 330 331 331 330 329 328 328 327 327 327 327 327 329 328 327 327 327 327 327 327 327 327 327 327 326 326 326 326 326
330 331 331 333 334 335 335 335 334 333 333 334 334 335 335 335 335 334 334 334 334 334 334 334 334 333 333 333 333 333 333 332 333 332 332 333 333 334 334 334 335 335 335 334 333 333 334 333 333 333 332 332 332 332 331 331 331 331 330 330 328 328 328 327 326 327 326 326 327 327 326 326 326 327 327 327 326 327 327 326 326 325 325 325 325
Wind_Speed
20 22 22 20 21 22 22 22 21 21 21 20 22 24 25 25 25 23 22 22 22 21 21 21 21 20 20 19 19 20 21 22 23 23 23 22 22 22 22 21 21 20 20 19 18 18 18 17 16 17 18 19 19 19 20 20 19 20 22 23 23 23 23 23 23 23 22 22 21 21 21 20 21 20 20 20 21 23 23 23 23 23 22 21 20
22 23 23 21 22 22 23 23 22 22 20 21 22 24 25 25 25 23 22 21 21 21 21 21 21 20 20 20 20 20 21 22 22 22 22 22 21 21 21 21 21 21 20 20 19 18 17 17 16 16 17 17 18 18 19 20 20 21 22 22 23 24 24 23 23 22 22 22 21 21 21 20 20 19 18 18 19 20 21 22 22 22 22 21 20
25 23 24 23 23 23 25 24 23 22 21 21 22 24 25 25 24 23 21 20 20 20 20 21 21 20 20 20 20 20 21 21 21 21 21 21 21 21 21 21 21 20 20 20 19 18 17 17 16 16 16 16 16 16 17 18 20 21 21 20 22 24 23 23 23 22 21 21 21 21 21 20 19 17 17 17 18 19 19 20 20 21 20 20 20
26 24 24 24 23 24 26 25 23 22 21 21 23 24 24 25 24 22 21 20 20 20 20 21 21 21 20 20 20 20 20 20 21 21 21 20 20 21 21 20 20 20 20 20 19 18 17 17 16 16 15 15 15 15 15 16 20 19 20 19 20 23 23 23 22 21 20 19 19 20 20 20 18 17 17 17 18 18 18 19 19 19 18 19 19
28 25 25 24 23 25 26 25 24 22 22 21 23 24 24 24 23 22 21 20 19 20 20 21 21 21 20 20 21 20 20 20 21 21 20 20 20 20 20 19 19 19 19 19 18 17 16 16 15 15 14 14 15 16 15 16 18 19 19 19 18 19 20 20 19 18 17 17 17 19 19 19 18 16 16 17 18 18 17 17 17 18 18 18 18
29 27 26 25 24 26 26 26 24 22 21 21 23 23 23 22 22 22 20 20 19 20 20 20 20 20 20 20 21 20 20 20 21 22 20 19 20 20 19 19 18 18 17 17 17 16 15 14 14 15 16 16 16 17 17 17 17 17 17 16 15 13 13 11 12 15 14 13 15 17 18 17 17 16 15 16 17 17 17 16 15 16 17 17 17
30 29 28 26 26 26 26 26 24 23 21 21 22 23 22 21 22 22 20 20 19 19 20 20 20 20 20 21 21 19 19 19 21 22 19 18 19 19 18 18 17 17 16 16 15 15 14 13 14 16 16 16 16 17 17 17 16 16 15 14 12 9 6 4 5 10 11 12 14 16 17 17 17 16 16 16 16 16 17 16 15 14 15 15 15
30 30 28 27 26 26 26 26 24 23 22 21 22 23 22 21 22 21 20 19 19 19 20 20 19 20 20 21 19 18 18 18 21 22 18 16 18 19 18 17 17 16 16 15 14 14 12 12 15 16 16 15 16 16 16 16 15 14 13 12 11 10 8 6 6 11 11 13 15 16 17 17 18 16 15 15 15 16 16 16 15 14 14 14 15
30 29 28 28 27 26 26 26 25 23 22 21 22 22 22 21 21 21 20 19 19 19 19 18 19 19 19 19 17 17 18 18 21 21 16 15 18 19 17 15 15 15 15 14 13 12 11 12 16 17 16 16 15 15 15 14 13 12 12 12 12 14 15 13 14 16 14 15 15 16 16 17 17 15 14 14 14 15 15 16 16 15 14 14 14
29 27 28 28 27 26 26 26 25 24 22 22 22 22 22 21 21 21 19 18 18 18 18 17 19 19 18 17 16 17 17 18 22 20 16 16 19 18 16 15 14 14 14 12 11 11 10 11 16 17 16 15 15 14 13 13 12 12 14 14 14 18 18 17 18 17 15 14 14 15 15 14 14 15 15 15 15 15 16 16 15 15 14 13 13
28 27 28 27 26 26 25 26 25 24 23 22 22 22 22 22 21 20 18 17 18 19 18 18 19 18 17 16 17 17 17 19 21 19 17 17 17 16 15 15 14 13 12 11 10 11 11 12 15 16 16 15 14 14 13 12 12 13 15 16 16 18 17 16 17 16 15 14 14 15 15 14 14 15 15 15 15 15 15 14 14 15 14 14 13
27 28 27 27 26 25 25 25 26 25 24 23 22 22 22 22 22 20 18 17 18 19 18 18 18 18 16 17 18 17 17 19 20 18 17 17 15 14 15 15 13 12 11 11 11 12 12 13 15 16 16 15 14 14 13 12 13 14 16 16 17 18 16 15 15 15 15 15 17 18 17 16 16 15 15 15 15 15 14 14 14 14 14 14 13
27 27 27 27 26 26 25 25 26 26 24 23 22 22 22 22 22 20 18 18 19 18 18 18 18 17 17 17 18 17 17 18 18 18 16 15 14 14 15 13 12 11 11 11 12 13 14 14 16 17 16 15 14 13 13 13 13 15 16 16 17 16 15 14 14 15 15 17 20 20 19 18 16 16 15 15 15 15 15 14 14 14 14 14 13
28 28 29 28 26 26 26 26 26 25 24 23 22 22 22 23 22 20 19 19 19 18 18 18 18 18 18 18 18 17 17 17 17 16 15 15 14 13 13 12 12 11 11 11 12 14 14 16 17 18 17 15 14 13 13 13 14 15 15 15 16 15 13 12 13 14 16 18 20 20 19 18 16 16 15 15 15 15 15 14 14 14 14 13 13
30 30 30 28 27 26 26 25 24 24 24 23 23 22 23 24 22 20 19 19 19 20 20 19 19 19 18 18 18 18 17 17 17 15 14 14 13 12 12 11 11 11 11 11 13 14 14 17 19 19 17 15 14 13 13 13 14 14 13 15 16 15 12 11 13 16 19 20 20 19 18 17 15 15 15 15 15 15 15 15 14 14 13 13 12
30 31 30 29 29 28 26 25 24 24 23 23 23 23 24 24 22 20 20 19 20 21 21 20 20 19 18 18 18 18 16 16 16 15 14 14 13 12 11 11 11 11 11 11 13 14 15 17 19 19 17 15 14 13 13 13 14 13 12 15 15 14 12 13 15 17 19 20 19 18 18 17 15 14 14 15 15 15 15 15 14 14 13 13 13
31 32 30 30 29 28 27 26 25 24 23 23 23 24 25 23 22 21 20 20 21 21 20 20 20 18 18 18 18 17 16 15 15 14 14 13 13 12 10 10 11 11 11 11 12 14 15 17 19 18 16 15 13 12 13 15 16 13 13 15 14 13 12 14 15 16 16 18 19 18 18 17 16 15 15 15 15 15 15 15 14 14 13 13 13
32 32 31 30 29 29 28 26 25 25 24 23 23 25 25 23 22 21 20 21 21 20 20 20 19 19 18 17 17 16 15 14 14 13 13 13 13 11 9 10 11 11 11 11 12 14 15 16 17 17 16 14 13 12 14 18 17 14 15 14 14 13 12 13 14 15 16 18 20 19 18 17 16 15 15 15 14 14 15 14 14 13 13 14 13
31 30 30 30 29 29 28 26 26 26 25 24 25 25 24 23 22 21 21 21 20 20 20 20 19 19 18 16 16 15 14 13 13 12 12 12 12 10 9 10 10 11 11 11 12 13 14 15 16 16 16 14 13 13 16 20 18 15 17 15 13 12 12 13 13 14 16 18 20 19 17 16 16 15 14 14 14 14 14 14 13 13 13 13 12
29 28 29 29 29 29 28 27 27 26 26 26 26 25 24 22 22 22 21 20 19 20 20 19 19 18 17 16 16 15 14 13 12 11 11 12 11 9 9 10 10 10 11 11 12 13 14 14 15 16 16 15 14 14 16 18 17 14 16 16 13 12 12 13 13 14 16 18 19 18 17 16 16 15 14 14 14 13 13 13 13 13 13 12 11
27 27 28 28 28 28 28 27 27 26 26 26 26 25 23 22 23 22 20 19 19 19 19 19 18 18 17 17 17 16 15 13 13 12 12 12 11 9 8 10 10 10 11 12 12 13 14 13 14 15 17 16 14 15 14 14 13 10 12 14 12 11 12 12 13 14 15 17 18 17 16 15 15 15 14 14 13 13 12 12 12 12 12 11 11
26 26 27 27 27 27 27 27 26 26 26 27 26 25 23 23 23 21 19 19 19 20 20 20 19 18 17 18 17 16 14 13 12 13 13 12 11 10 8 9 10 10 11 12 12 13 13 14 14 16 17 17 14 13 12 11 10 9 8 11 10 10 11 11 12 13 14 17 17 16 15 15 15 15 14 13 13 13 13 12 12 12 12 11 11
25 26 26 27 27 27 27 27 26 26 27 28 26 25 24 24 24 21 20 20 20 22 21 21 19 18 18 18 17 15 14 13 12 11 12 12 12 10 9 9 10 9 10 11 12 12 12 13 14 16 16 15 12 10 10 10 9 8 8 9 10 10 11 11 12 13 15 17 17 16 16 15 15 14 14 14 14 13 13 12 12 12 12 12 11
24 25 25 26 27 27 27 27 26 27 28 28 26 25 26 26 24 22 21 21 22 23 22 22 21 20 19 19 18 16 14 13 12 11 11 13 13 11 10 9 9 8 8 10 12 11 11 12 13 15 14 13 10 9 9 8 6 8 9 9 10 10 10 11 11 12 15 16 15 15 15 15 15 14 14 14 14 14 13 13 12 12 12 12 11
22 22 23 26 27 28 28 27 27 28 28 28 27 27 27 27 24 23 23 23 23 23 23 22 22 21 20 19 19 17 15 15 14 13 13 13 13 12 11 9 8 8 8 10 12 11 11 11 12 14 13 12 10 8 8 7 4 5 7 7 7 9 10 10 10 12 14 15 14 14 14 14 14 14 14 14 14 13 13 12 13 13 12 12 12
21 23 25 29 29 29 28 28 27 28 28 28 28 28 28 27 25 24 24 24 23 23 23 23 22 21 21 20 19 18 17 16 15 14 13 12 12 11 10 9 9 9 10 11 12 12 11 11 11 12 12 10 8 6 7 7 3 2 5 6 7 9 10 9 10 12 13 14 15 14 13 13 14 13 13 13 12 13 12 12 12 12 12 12 11
24 27 30 31 29 28 28 29 29 29 29 29 28 28 27 26 25 25 25 25 24 24 23 23 22 22 22 20 20 19 18 17 16 14 13 11 10 10 9 8 8 9 10 12 12 12 11 10 11 11 11 9 5 5 7 6 4 3 5 7 8 9 9 10 10 12 13 14 14 14 13 13 13 13 13 12 12 12 12 11 11 12 11 11 11
28 30 31 29 29 30 30 31 31 31 30 30 29 28 27 26 24 25 25 25 25 24 23 22 22 21 21 20 19 19 19 18 16 15 13 12 11 10 8 7 9 9 10 12 12 11 11 10 10 10 9 7 4 5 7 6 5 4 6 8 8 9 9 10 10 11 12 13 14 14 13 12 12 12 12 12 12 12 11 10 10 10 10 11 10
30 29 27 29 32 32 31 31 32 32 31 30 29 28 27 25 25 26 26 26 25 23 22 21 21 21 21 20 19 19 19 18 17 16 14 13 12 11 9 9 10 11 10 11 11 11 11 9 9 8 6 5 5 7 9 8 6 4 5 8 9 10 10 10 11 12 12 13 14 14 12 12 12 12 11 11 11 11 10 9 9 9 9 10 10
31 29 27 30 31 31 31 31 32 32 32 31 30 29 27 27 27 27 26 25 24 22 22 21 21 22 21 20 19 20 19 19 18 17 16 15 14 12 11 10 10 11 10 9 10 9 8 7 7 5 5 5 4 7 10 8 6 5 4 6 9 11 11 11 11 12 13 13 14 14 11 11 13 12 11 11 10 10 9 9 9 9 8 10 10
26 25 25 28 29 31 32 32 32 32 32 31 30 29 28 28 27 27 26 25 24 22 21 21 21 21 20 19 20 20 20 20 19 19 18 17 15 13 11 10 9 9 9 8 6 5 5 5 7 7 6 6 5 7 8 7 7 6 5 6 10 13 13 12 13 13 12 12 13 14 12 12 14 13 11 11 10 10 9 8 8 8 8 9 9
16 14 13 17 24 30 32 33 33 32 32 32 31 30 29 28 27 27 26 25 24 23 22 21 21 19 18 19 20 21 20 20 20 20 19 16 14 12 11 11 9 9 10 9 6 7 8 8 9 10 8 6 6 6 7 8 9 8 7 9 12 15 14 13 13 12 11 11 12 13 13 13 14 13 11 11 12 11 9 8 7 7 8 9 9
18 18 14 13 16 21 26 30 31 32 32 32 32 31 30 28 27 26 25 25 24 23 23 22 21 18 18 20 21 22 21 20 20 20 18 15 13 14 13 13 11 10 11 11 10 10 11 11 10 11 9 7 6 7 8 10 11 10 10 11 14 16 15 13 12 12 11 12 12 12 13 14 14 12 11 11 11 10 9 8 8 7 8 8 9
25 26 26 25 21 18 20 24 27 31 31 31 32 32 30 28 27 25 24 25 25 24 24 23 21 19 19 21 22 22 22 21 20 19 18 15 14 16 16 15 13 13 13 12 11 10 11 11 9 9 9 8 8 9 11 12 12 11 12 13 15 15 14 13 12 12 12 12 11 12 13 14 15 13 11 10 9 8 8 8 7 7 7 8 8
31 30 32 33 29 24 24 24 25 28 28 28 30 30 29 28 27 25 24 24 24 25 25 23 21 20 21 22 22 22 22 22 20 18 18 15 15 17 17 15 15 15 15 12 11 12 12 10 8 8 10 11 10 11 11 12 13 12 12 15 15 15 14 13 13 13 12 12 12 11 12 14 15 14 12 10 8 6 6 8 7 7 8 9 9
37 35 33 34 32 31 31 28 25 22 20 22 24 26 27 27 27 26 25 24 24 25 25 23 21 20 21 22 22 21 21 22 19 18 18 16 16 17 17 16 16 17 16 13 13 14 13 11 7 8 11 13 12 12 12 13 13 12 13 15 16 15 15 14 13 13 13 12 12 11 12 13 14 13 12 10 7 5 6 8 9 8 9 10 11
32 32 30 32 31 30 29 27 26 21 18 23 25 25 25 26 27 27 25 25 24 24 24 23 21 20 21 21 21 20 21 21 19 18 18 17 17 17 17 16 16 16 16 15 14 12 12 11 9 10 12 12 14 14 15 15 14 13 12 14 14 14 14 14 14 13 13 13 12 11 11 12 12 11 10 8 6 5 5 8 10 9 9 10 11
24 25 26 32 32 30 28 27 27 24 23 26 28 28 27 25 26 26 25 24 24 23 23 22 21 20 21 21 20 19 20 20 19 18 18 17 16 16 17 16 16 16 16 16 14 11 10 11 11 12 12 12 15 17 17 16 15 14 12 12 12 12 12 13 14 14 13 12 11 11 11 10 10 9 8 7 6 5 6 9 11 10 9 8 8
19 17 18 24 27 24 21 24 25 22 23 25 28 31 28 24 24 22 22 23 22 22 21 21 20 20 20 20 19 18 19 19 17 17 17 17 16 16 17 17 17 17 17 16 15 12 10 10 11 14 14 14 16 18 19 17 15 14 13 12 10 10 11 11 13 14 13 12 11 11 11 10 9 8 7 7 6 6 6 8 9 10 9 7 5
15 13 10 14 21 16 12 22 26 20 22 27 28 28 24 22 22 21 20 21 21 21 20 20 20 19 19 19 18 18 19 18 16 17 17 16 17 17 17 17 17 17 17 16 17 15 13 12 13 17 19 17 17 19 19 18 16 14 13 12 10 9 9 10 11 12 12 12 11 12 12 10 9 8 7 7 7 6 6 6 7 9 8 6 5
17 16 13 19 26 18 12 22 27 23 25 29 28 26 24 24 23 22 22 21 20 20 19 20 19 19 19 19 18 17 18 18 16 17 18 17 17 17 17 17 18 17 15 14 16 16 17 18 19 20 20 20 20 20 20 21 18 15 12 12 11 9 8 9 9 8 8 10 10 11 11 10 10 9 9 8 7 6 6 6 7 8 7 6 5
24 23 21 26 26 17 17 21 21 24 29 28 27 27 27 27 27 26 25 23 21 20 19 20 19 19 19 19 18 17 18 17 16 16 18 18 17 16 17 17 18 17 15 14 14 14 18 21 22 22 20 20 21 22 23 20 15 13 12 10 9 9 8 7 7 5 5 7 8 8 9 10 10 10 10 9 8 7 7 7 8 8 8 7 6
26 24 22 25 23 19 22 20 12 18 27 25 26 29 28 26 25 26 26 24 21 20 19 19 18 18 18 18 18 18 18 18 16 15 16 17 16 16 17 18 18 16 16 16 15 15 19 21 22 22 20 19 20 23 24 18 16 16 12 6 3 4 5 5 5 4 4 5 6 7 8 10 10 11 10 9 9 9 8 7 7 8 7 6 5
24 22 21 23 24 23 24 25 23 23 25 25 24 26 26 24 23 23 24 22 20 19 17 17 18 18 18 18 18 18 18 18 17 15 16 16 16 15 16 17 16 15 15 16 17 18 20 21 23 23 22 20 18 21 20 14 18 19 10 4 2 2 2 3 5 5 4 5 5 7 8 10 10 11 10 9 8 8 8 8 7 7 6 5 5
24 25 25 24 27 28 28 33 37 34 32 31 26 25 27 27 23 21 21 20 18 17 16 17 18 19 19 18 18 17 17 18 16 15 15 15 14 14 14 15 15 14 14 15 17 18 19 21 24 22 22 22 20 22 16 10 17 19 12 8 4 0 1 4 6 5 4 7 6 6 7 9 10 10 11 10 8 8 9 9 8 7 7 6 5
23 27 27 26 29 31 34 39 40 37 37 36 31 31 33 33 28 24 24 21 19 19 19 19 20 20 19 18 18 17 16 16 16 15 14 13 12 13 14 15 15 15 14 15 17 18 19 20 22 21 21 21 23 24 16 14 20 15 11 11 5 2 7 9 5 2 4 7 6 7 8 9 9 9 11 11 11 10 10 9 8 8 8 7 5
23 27 27 26 30 33 36 39 39 40 38 35 33 34 34 33 32 30 28 26 23 22 22 22 21 20 19 19 18 17 16 15 15 14 13 13 12 13 14 15 15 15 15 17 18 19 20 19 19 20 21 21 24 25 18 20 23 12 11 13 4 5 15 14 7 3 4 4 5 8 9 9 9 8 9 11 11 11 11 10 9 9 9 7 5
23 27 28 29 32 34 36 36 36 39 38 36 34 34 33 33 32 30 29 28 26 24 24 23 21 20 19 19 18 17 16 15 14 14 13 14 13 13 14 15 16 15 16 19 19 19 20 19 17 18 21 21 23 25 22 25 24 13 13 13 6 9 18 15 12 11 6 2 4 6 7 9 9 9 9 10 10 10 9 9 10 10 9 8 6
25 29 31 33 32 33 34 31 32 37 38 37 36 35 35 35 33 31 28 27 25 23 24 23 21 20 19 18 18 17 16 14 14 14 14 15 14 13 13 15 16 16 16 17 18 18 19 19 17 18 20 20 22 24 23 27 26 16 14 12 8 15 16 11 15 16 9 5 4 4 6 8 8 9 9 9 9 9 9 10 10 9 8 8 7
21 28 31 34 33 33 33 30 30 31 30 31 35 35 33 31 28 26 24 22 20 19 20 21 21 20 19 18 18 17 16 16 15 15 15 16 16 13 13 15 17 16 15 16 17 18 19 19 18 18 18 19 21 22 22 27 25 18 15 14 16 20 14 9 14 15 10 6 4 5 9 9 7 8 9 10 10 10 11 12 10 8 7 8 8
3 6 14 22 27 29 29 26 21 16 14 17 22 27 26 24 20 19 20 19 18 17 18 18 19 20 19 19 19 18 17 17 16 16 17 17 16 13 13 15 16 16 16 16 17 18 18 19 18 17 17 18 20 20 21 24 23 18 16 16 21 23 17 14 18 18 14 9 6 7 10 11 10 10 11 11 12 12 13 12 10 8 8 9 10
Wind_Direction
152 149 150 154 148 145 146 147 146 147 144 143 140 138 136 135 134 131 130 128 128 127 126 126 126 125 122 119 114 109 105 104 104 103 101 100 99 98 96 92 89 88 86 86 91 94 90 90 87 83 86 90 91 91 93 90 88 91 90 90 91 91 91 92 93 91 90 89 87 87 85 85 84 83 81 81 82 81 81 81 83 83 83 83 84
154 150 152 154 149 147 148 148 149 149 147 144 141 139 138 136 135 132 132 129 129 127 127 127 126 126 123 119 115 112 109 107 106 104 102 101 101 100 98 94 91 88 85 84 88 94 93 91 93 90 87 89 92 92 94 93 90 90 90 91 92 91 91 93 92 90 89 88 87 86 83 83 83 84 85 84 81 80 80 79 79 80 81 82 84
151 151 155 155 152 151 151 151 152 151 148 146 142 141 139 138 136 134 132 130 129 127 128 127 126 125 123 120 116 114 113 110 107 105 104 104 103 102 100 95 92 90 86 85 86 92 93 92 96 96 94 91 93 94 92 94 95 91 91 91 93 93 91 90 88 87 88 87 87 86 83 81 83 84 85 85 83 80 80 80 79 79 80 82 82
151 152 155 155 154 153 153 153 152 152 150 147 145 143 141 140 137 135 133 131 130 128 128 127 126 124 122 120 116 114 113 111 107 107 107 106 105 104 101 97 94 91 88 86 85 88 92 95 97 99 101 95 93 96 92 96 102 99 95 91 92 93 90 86 84 83 83 83 83 83 82 81 81 82 82 85 86 83 80 80 80 80 80 81 81
150 151 155 155 155 154 154 154 154 153 151 148 146 144 141 140 138 136 135 133 131 129 128 126 125 122 120 118 116 114 112 111 108 108 108 107 106 105 102 98 96 93 90 86 85 85 88 94 100 109 111 101 100 104 101 99 104 105 102 95 92 92 89 83 76 77 81 80 82 84 86 85 82 81 80 82 84 84 82 79 80 83 82 81 81
150 152 156 156 156 156 156 155 155 154 151 149 146 144 140 139 139 139 137 135 132 129 128 126 124 121 119 118 117 115 112 110 110 108 107 108 107 106 103 99 97 95 92 87 86 85 85 88 99 113 114 109 109 111 110 107 106 106 104 100 97 92 89 78 62 72 83 83 86 88 89 88 86 83 81 80 80 83 84 84 83 84 84 83 81
149 152 156 157 156 157 158 157 156 154 152 150 147 144 140 140 142 142 140 137 133 130 128 126 124 122 119 120 119 116 112 110 111 111 113 114 109 107 103 100 99 97 94 90 89 88 85 87 100 112 113 112 113 114 113 111 109 106 103 98 90 73 70 60 61 90 90 88 93 92 91 88 86 86 85 82 80 81 83 87 87 84 84 84 82
147 152 156 156 156 159 160 158 157 155 153 152 148 145 143 143 144 145 141 139 135 131 130 127 124 123 122 123 120 116 114 113 114 115 119 119 111 109 106 105 104 101 96 94 94 92 89 94 108 115 116 117 116 117 115 113 109 104 98 82 63 59 71 71 99 124 107 95 98 94 92 90 90 88 83 80 82 84 84 86 86 86 84 83 83
146 152 155 156 157 159 160 159 157 156 155 153 151 149 147 144 145 145 142 140 138 134 131 127 124 122 123 124 120 117 116 119 121 119 121 119 114 111 109 110 107 104 99 97 97 93 90 98 115 120 121 123 122 120 116 113 106 96 80 62 62 82 94 93 109 127 114 101 101 97 96 93 90 86 80 80 86 89 88 89 89 90 88 86 85
147 152 155 155 156 160 160 158 158 158 157 155 155 154 150 147 147 146 142 142 142 140 133 128 126 124 124 125 122 121 120 124 126 125 122 114 112 111 110 110 106 104 102 100 95 87 83 96 118 125 127 127 125 122 116 109 96 81 66 64 83 100 105 107 114 119 112 105 103 99 96 89 83 82 84 87 90 89 88 90 90 91 91 90 88
147 151 153 154 156 160 160 159 161 161 160 158 157 156 155 153 151 148 144 145 146 145 137 132 132 129 126 125 124 124 123 127 128 127 121 113 113 116 114 111 107 106 100 95 86 79 79 96 119 128 131 130 126 120 112 101 86 74 68 78 100 110 112 114 113 112 110 107 104 103 97 89 86 87 90 92 91 89 89 89 89 90 90 89 88
149 151 152 154 157 160 161 162 163 163 162 160 159 158 160 158 155 152 148 148 150 147 142 139 138 134 127 125 127 127 127 129 130 128 121 118 123 123 117 112 110 105 94 87 80 77 83 100 120 131 133 130 125 117 106 94 83 73 73 89 109 115 115 113 109 108 106 101 100 102 98 93 92 92 93 94 92 90 89 90 93 94 91 89 89
149 151 152 156 159 162 163 164 165 165 163 161 161 161 163 162 159 156 151 151 151 149 146 145 145 140 131 128 130 131 131 132 133 130 123 124 127 125 119 114 111 103 93 86 82 83 91 105 121 132 133 129 123 113 103 91 80 73 76 96 114 117 113 107 103 104 105 104 104 104 102 98 96 95 95 96 94 92 90 91 96 96 93 89 89
149 152 154 159 161 163 166 166 166 164 164 164 164 164 165 165 163 158 154 153 153 152 150 149 149 145 136 133 135 134 135 135 136 132 128 129 129 129 122 114 109 102 94 88 86 88 96 109 123 132 132 128 120 110 100 88 77 70 77 103 119 120 114 104 100 102 104 107 109 108 107 102 99 97 95 96 95 94 91 90 93 94 94 92 89
149 154 156 160 161 163 166 166 165 166 167 167 167 166 165 165 163 160 157 156 155 153 151 150 150 148 141 137 139 138 138 139 137 135 133 132 132 132 124 115 108 102 95 90 91 92 97 112 126 132 132 126 117 107 93 82 72 64 81 115 129 126 116 105 103 103 102 105 108 109 108 104 101 98 96 96 96 95 93 90 92 94 93 92 90
153 156 159 160 162 163 164 165 166 167 168 170 169 166 164 165 163 162 160 158 155 153 151 150 148 147 144 141 143 142 141 143 142 140 137 134 133 132 127 117 106 103 98 94 94 94 97 113 129 134 132 124 113 101 88 76 62 62 94 124 132 124 112 103 105 106 106 109 108 106 105 102 100 98 98 97 98 98 95 91 93 95 93 92 91
157 159 159 160 161 163 164 165 166 167 169 170 169 165 165 165 164 164 161 157 155 153 152 150 149 146 143 143 145 146 146 149 149 144 141 138 134 132 132 121 108 106 105 99 98 98 97 112 131 136 131 122 109 98 87 70 60 74 105 126 132 121 110 103 105 107 110 112 107 105 104 103 103 100 99 99 100 99 98 96 96 97 94 94 93
159 160 160 159 161 163 165 165 165 168 168 168 167 166 166 166 165 165 161 157 155 155 155 154 152 147 143 143 145 148 151 155 155 148 147 146 137 134 135 123 112 111 110 105 101 103 101 108 127 138 134 124 112 100 85 70 69 94 113 123 128 118 111 104 104 108 113 114 109 108 107 106 106 102 101 101 100 99 100 99 99 99 95 94 94
158 159 158 159 162 164 166 165 168 170 168 168 166 166 168 167 167 166 160 157 158 158 159 159 156 150 145 143 144 146 147 152 155 149 150 149 140 140 136 123 117 114 115 112 104 107 107 107 121 136 139 130 118 101 85 75 78 106 122 126 125 117 113 104 105 110 113 116 115 113 110 108 107 105 104 103 101 101 102 102 101 99 98 98 94
156 158 158 162 163 163 166 168 172 170 169 168 166 168 169 169 169 165 161 160 162 162 162 162 158 153 147 143 144 145 145 149 152 151 153 150 144 145 139 128 124 120 121 119 111 110 113 112 117 133 143 135 121 103 88 78 79 106 126 127 124 118 110 103 105 110 112 116 118 117 114 112 109 108 106 104 104 102 104 106 104 102 103 102 97
156 159 160 163 163 164 166 169 172 170 170 168 167 169 169 171 170 165 163 164 165 165 165 164 160 155 150 148 149 149 150 154 153 154 156 152 149 151 143 136 133 126 126 126 119 115 119 120 119 130 142 137 122 105 87 74 76 97 121 125 123 115 107 104 105 109 112 114 117 117 116 114 113 112 110 110 109 107 106 107 106 104 104 102 100
157 159 163 165 164 165 167 168 169 170 170 168 169 170 172 173 169 167 167 168 169 168 168 166 161 158 156 154 152 151 152 157 160 162 165 159 154 156 147 142 142 132 130 131 126 123 124 127 127 131 137 136 124 107 89 76 75 82 111 127 124 114 110 108 105 108 114 116 118 119 118 116 116 117 117 117 115 112 109 108 108 106 106 104 102
157 161 166 166 165 166 168 170 169 171 171 170 171 172 173 172 169 171 171 170 172 170 170 168 164 164 162 157 154 154 155 158 161 165 169 165 160 163 154 145 146 138 136 138 135 132 132 132 133 136 139 139 129 114 101 87 79 82 107 131 127 119 114 110 106 109 116 119 123 124 122 121 121 121 120 120 117 114 111 110 109 108 108 106 103
159 162 165 167 168 169 171 173 172 172 172 171 173 173 173 173 173 174 172 170 171 172 172 170 170 169 164 159 157 158 159 157 153 154 163 163 164 171 167 156 152 148 146 147 145 141 140 138 136 140 144 144 137 127 119 105 91 90 107 129 130 124 118 111 109 110 115 120 125 128 128 127 125 123 121 121 118 116 115 114 113 112 112 110 109
154 157 162 169 173 174 176 175 174 174 175 175 175 175 174 175 175 174 172 170 171 174 173 172 173 169 164 162 160 161 162 157 153 153 160 167 170 178 178 172 167 163 160 157 157 153 149 147 141 140 140 141 141 140 137 130 128 102 105 128 136 130 122 114 112 115 120 125 131 132 128 129 126 125 124 121 121 121 120 117 116 116 115 113 111
150 158 167 175 177 177 176 174 174 176 177 178 177 176 177 178 176 174 173 172 174 174 173 174 172 168 167 166 164 164 164 160 159 158 161 168 171 177 175 171 171 170 169 166 164 162 160 157 149 143 140 141 143 160 158 144 169 162 123 140 153 144 128 120 121 123 126 126 128 130 131 132 129 128 125 123 125 126 123 119 119 118 116 113 112
157 169 175 177 175 175 177 177 177 178 180 181 180 179 181 181 177 175 175 174 175 175 173 174 171 170 172 172 168 166 165 165 164 161 163 162 160 164 162 165 173 173 170 170 170 169 169 166 158 152 148 145 147 184 179 161 183 192 161 159 159 152 137 130 130 128 128 128 131 137 139 137 133 130 127 126 126 123 121 120 119 118 117 117 115
169 177 178 173 174 179 182 181 180 180 181 183 182 182 183 181 178 177 178 176 177 176 175 174 173 176 178 176 172 168 168 168 165 163 165 163 158 158 153 151 158 161 159 162 166 166 166 163 156 152 152 161 188 203 192 179 179 161 163 177 170 159 148 140 137 134 133 134 140 144 142 139 135 131 128 126 122 120 121 120 119 119 119 119 116
177 178 176 174 179 181 183 182 181 181 182 184 184 184 183 182 180 179 179 179 180 179 177 178 178 180 182 181 178 175 173 168 164 163 164 164 164 161 150 141 142 142 141 144 149 152 155 152 148 152 171 206 224 204 195 183 173 154 157 182 184 171 158 148 143 141 138 138 141 142 143 141 133 129 126 124 123 125 125 125 127 127 127 125 123
180 178 177 178 180 179 182 183 182 183 183 184 185 185 184 183 182 182 182 181 182 181 181 182 182 183 184 186 185 182 177 168 162 162 163 164 166 165 157 152 149 146 141 138 143 147 150 154 163 184 209 221 209 188 195 188 173 178 174 186 189 175 164 155 149 146 140 139 142 143 146 143 133 129 127 127 129 127 126 127 128 128 129 127 124
176 178 177 176 178 179 184 185 184 184 183 184 185 185 186 186 185 184 183 183 184 183 183 184 184 186 186 187 187 184 178 170 163 162 164 165 168 172 170 170 168 164 156 143 149 162 176 193 193 198 201 195 174 165 184 189 181 185 187 191 183 170 163 157 152 149 142 141 146 147 148 141 132 129 133 136 131 124 122 122 122 124 121 121 124
169 172 171 172 178 182 185 186 186 184 184 185 185 186 189 188 188 187 186 186 187 186 187 187 187 188 188 185 186 185 180 175 169 165 165 168 175 180 183 182 178 180 171 154 151 159 181 193 179 181 186 178 167 154 167 188 189 181 175 181 176 167 163 159 154 150 145 146 150 150 147 139 132 135 140 133 124 121 121 113 110 122 126 127 132
181 178 178 177 181 188 188 188 188 187 186 186 185 188 191 190 191 191 190 189 190 191 191 192 191 190 189 185 186 187 183 180 176 171 170 174 182 187 188 185 181 180 171 160 149 150 181 193 174 182 194 180 165 155 167 183 186 177 171 174 172 169 165 159 155 151 149 151 153 153 149 142 140 144 136 123 121 125 128 113 94 103 126 136 138
189 185 185 183 186 194 194 193 192 190 188 186 186 190 192 191 193 194 194 194 195 196 195 195 194 192 190 187 187 188 187 184 181 177 176 178 185 189 189 188 184 176 165 159 147 151 187 191 166 176 181 168 162 159 167 176 180 179 176 175 172 171 168 161 158 155 154 154 154 153 150 148 147 144 136 135 139 137 139 127 96 86 109 130 135
188 187 188 187 188 195 198 200 200 196 190 185 186 191 194 193 195 198 198 198 198 200 198 197 196 193 192 190 188 188 187 186 185 181 178 181 186 189 191 191 188 179 171 162 153 161 180 173 157 167 162 156 158 161 169 170 173 175 171 171 170 170 169 165 163 160 159 157 154 152 151 153 152 149 149 156 161 154 148 132 113 97 100 116 123
185 184 187 188 193 197 199 200 201 199 185 181 187 191 197 199 201 203 203 203 202 200 198 197 197 194 194 193 190 190 189 188 187 184 180 182 186 188 188 188 186 181 177 170 161 168 176 166 167 179 163 154 154 161 169 166 165 165 160 164 169 171 169 167 166 164 164 162 156 152 155 157 158 158 159 164 168 160 148 134 127 119 110 114 118
180 179 178 186 196 196 195 197 200 200 182 181 189 193 200 204 206 206 205 206 204 199 195 196 197 197 197 194 192 193 192 190 188 184 182 183 186 187 185 184 185 181 182 178 162 162 173 164 163 178 174 162 157 160 163 165 165 159 150 155 165 169 169 169 170 170 170 166 162 160 162 164 166 167 165 165 164 159 155 144 140 134 126 121 120
172 170 172 186 195 195 193 192 198 200 188 184 188 194 202 206 207 207 205 205 203 198 194 197 198 198 200 196 193 194 194 192 187 185 186 187 186 185 182 181 183 183 186 181 160 153 168 165 162 174 181 170 164 165 163 162 159 149 140 143 156 167 171 173 174 175 175 171 170 170 170 170 170 169 167 163 160 164 164 154 151 149 143 138 132
163 158 167 184 190 193 190 184 192 193 183 186 192 195 199 200 201 202 204 205 203 199 197 200 201 200 202 199 196 195 194 193 189 188 189 189 187 185 183 182 184 185 186 175 157 153 160 163 167 173 178 176 173 171 165 158 151 143 138 136 148 165 171 175 179 181 181 182 181 182 182 175 170 172 167 161 159 164 165 159 159 158 158 161 155
146 149 159 181 185 186 177 179 189 184 176 189 195 193 191 190 194 196 201 205 204 201 199 203 205 207 207 203 201 199 196 195 191 188 188 188 187 186 186 184 184 185 183 171 158 156 157 165 179 174 169 169 171 171 166 158 145 134 132 133 142 161 169 173 184 186 185 193 198 198 195 181 174 177 168 162 163 165 162 160 164 168 173 176 169
150 167 175 184 184 182 176 182 187 178 177 192 194 189 185 184 189 194 199 205 206 204 204 206 209 211 209 207 206 204 202 201 195 190 189 187 184 186 188 186 185 184 184 175 160 156 160 169 177 174 168 165 164 168 167 155 138 125 123 120 122 140 162 171 186 190 181 193 203 205 201 185 178 181 173 169 171 169 162 158 164 171 173 172 171
175 185 181 176 174 170 167 178 187 173 171 187 195 192 191 189 190 194 200 206 207 208 208 207 207 208 209 211 208 207 207 204 200 196 193 188 184 186 188 189 189 186 184 175 159 157 165 170 169 170 174 169 162 165 164 152 137 133 130 114 104 119 137 152 173 187 183 193 196 200 200 186 180 182 178 179 183 179 168 164 166 168 172 176 180
183 183 175 168 167 163 161 167 172 155 160 177 192 193 193 194 194 196 200 204 207 210 210 205 204 206 210 212 209 208 208 204 203 200 194 191 189 191 190 190 190 186 181 169 158 165 170 169 168 170 174 168 162 165 167 159 145 138 129 120 108 108 116 121 131 146 179 201 194 196 197 188 186 187 185 190 195 186 174 175 178 177 178 180 183
172 162 159 166 172 169 164 161 151 149 165 176 187 196 195 193 196 198 199 201 204 208 209 204 203 206 209 210 208 208 206 204 205 203 197 192 192 197 193 189 188 183 179 166 163 174 173 170 173 175 173 168 166 169 171 171 161 148 128 103 80 75 129 118 103 114 159 183 188 199 195 185 186 188 190 198 201 185 175 182 185 183 182 177 178
166 156 157 166 176 175 168 161 155 159 173 175 181 196 198 195 194 194 194 197 201 203 203 201 203 206 208 207 206 208 207 205 207 206 203 198 196 200 191 186 184 176 172 168 170 177 174 174 179 179 177 173 170 171 173 192 184 167 150 135 114 9 193 129 118 116 152 166 175 187 182 178 182 186 190 193 193 180 176 184 185 185 187 184 181
169 165 165 169 178 179 170 164 161 165 173 175 180 190 195 194 189 186 185 186 193 198 199 200 202 206 208 206 205 208 210 210 212 210 207 204 200 196 186 181 176 167 170 175 174 173 173 181 185 183 184 179 171 172 181 198 190 180 173 163 147 188 163 140 132 125 144 158 170 173 172 174 179 190 189 181 178 177 178 185 188 190 195 196 193
170 170 171 174 178 177 173 172 170 169 173 179 184 189 192 191 189 188 186 185 189 194 199 203 203 205 207 206 204 206 211 214 215 213 207 201 193 185 182 178 171 169 178 180 176 175 177 184 189 189 190 186 176 176 186 190 186 196 206 195 227 207 167 155 155 151 136 150 161 168 179 180 178 188 186 171 171 179 179 183 190 196 201 202 199
171 172 171 173 175 174 176 181 177 173 176 181 187 191 191 191 192 191 190 191 190 190 196 202 203 203 203 203 203 206 211 214 213 208 198 189 182 178 179 176 174 179 184 184 182 182 183 186 192 195 193 192 187 184 186 186 187 197 201 205 237 189 170 166 164 153 136 128 144 159 181 181 177 180 180 175 177 179 177 181 190 196 198 196 193
173 175 173 172 175 176 180 188 187 183 183 185 188 192 194 194 195 194 193 193 192 190 193 197 200 200 199 201 203 204 204 205 203 196 186 181 178 176 177 177 181 185 186 187 186 184 187 188 191 195 196 196 196 194 190 187 191 195 191 194 176 159 160 164 160 149 136 140 145 150 165 169 173 176 179 182 180 178 179 186 193 193 191 186 179
181 178 176 174 178 181 186 194 197 194 193 192 190 190 193 195 195 194 194 191 189 189 189 193 196 196 197 200 198 195 193 191 191 188 186 185 181 179 180 184 189 189 186 185 184 183 187 190 193 196 199 199 197 198 197 192 194 199 195 186 160 152 150 148 156 151 138 136 133 147 160 163 165 171 177 179 178 178 178 183 185 178 173 168 163
262 194 179 179 183 185 190 198 205 212 216 211 198 189 187 189 192 195 196 193 190 187 186 189 192 194 196 195 192 190 187 188 191 191 191 187 183 182 185 188 191 190 187 183 182 186 190 192 194 196 198 201 197 197 198 195 197 199 199 193 174 168 167 165 167 162 151 144 137 146 163 163 160 165 173 174 173 173 174 178 176 164 161 161 157